WD9EKA Weather Reports


Display with metric or nautical units.
time (UTC)temp
F
wind
direction
speed
MPH
gust
MPH
rain 1hr
in
rain 24hr
in
rain mn
in
humidity
%
barometer
mb
20260507052330 42 47 0.0 0.0 0.00 0.00 0.00 90 1011.8
20260507051810 42 47 0.0 0.0 0.00 0.00 0.00 91 1011.7
20260507051250 42 47 0.0 0.0 0.00 0.00 0.00 92 1011.8
20260507050730 42 47 0.0 1.0 0.00 0.00 0.00 94 1011.9
20260507050211 42 47 1.0 2.0 0.00 0.00 0.00 97 1011.6
20260507045650 42 38 0.0 0.0 0.00 0.00 0.00 97 1011.8
20260507045130 41 316 0.0 1.0 0.00 0.00 0.00 98 1011.9
20260507044050 41 314 0.0 0.0 0.00 0.00 0.00 98 1011.6
20260507043531 41 314 0.0 0.0 0.00 0.00 0.00 98 1011.6
20260507043011 41 313 0.0 0.0 0.00 0.00 0.00 98 1011.8
20260507042451 41 312 0.0 0.0 0.00 0.00 0.00 98 1011.9
20260507041930 41 312 0.0 0.0 0.00 0.01 0.00 97 1011.6
20260507041410 41 312 0.0 0.0 0.00 0.01 0.00 97 1011.8
20260507040850 41 312 0.0 0.0 0.00 0.01 0.00 97 1011.7
20260507040330 41 312 0.0 0.0 0.00 0.01 0.00 97 1011.7
20260507035810 41 312 0.0 0.0 0.00 0.02 0.00 96 1011.8
20260507035250 41 312 0.0 0.0 0.00 0.03 0.00 96 1011.7
20260507034730 41 312 0.0 0.0 0.00 0.03 0.00 96 1011.8
20260507034211 41 312 0.0 0.0 0.00 0.04 0.00 96 1011.5
20260507033650 42 312 0.0 0.0 0.00 0.04 0.00 95 1011.9
20260507033130 42 312 0.0 0.0 0.00 0.04 0.00 95 1011.7
20260507032610 42 312 0.0 0.0 0.00 0.05 0.00 94 1011.6
20260507032051 42 312 0.0 0.0 0.00 0.06 0.00 94 1011.7
20260507031531 42 312 0.0 0.0 0.00 0.06 0.00 94 1011.5
20260507030450 42 312 0.0 0.0 0.00 0.06 0.00 93 1011.5
20260507025930 42 312 0.0 0.0 0.00 0.06 0.00 92 1011.8
20260507024314 43 312 0.0 0.0 0.00 0.06 0.00 91 1011.6
20260507023754 43 312 0.0 0.0 0.00 0.06 0.00 90 1011.3
20260507023233 44 312 0.0 0.0 0.00 0.06 0.00 90 1011.5
20260507022154 44 312 0.0 0.0 0.00 0.07 0.00 89 1011.2
20260507021633 45 312 0.0 0.0 0.00 0.08 0.00 88 1011.2
20260507021115 45 312 0.0 0.0 0.00 0.08 0.00 87 1011.2
20260507020554 44 312 0.0 0.0 0.00 0.08 0.00 86 1011.0
20260507020033 45 312 0.0 0.0 0.00 0.10 0.00 85 1010.8
20260507015515 45 312 0.0 0.0 0.00 0.12 0.00 84 1011.0
20260507014433 46 312 0.0 0.0 0.00 0.17 0.00 83 1010.9
20260507013914 46 312 0.0 0.0 0.00 0.17 0.00 82 1010.8
20260507012833 47 312 0.0 0.0 0.00 0.18 0.00 79 1010.8
20260507012314 47 312 0.0 0.0 0.00 0.18 0.00 78 1010.8
20260507011755 48 312 0.0 0.0 0.00 0.18 0.00 75 1010.7
20260507011233 48 312 0.0 0.0 0.00 0.19 0.00 73 1010.7
20260507010715 49 312 0.0 0.0 0.00 0.19 0.00 70 1010.4
20260507010155 50 312 0.0 1.0 0.00 0.19 0.00 68 1010.2
20260507005633 51 312 0.0 0.0 0.00 0.19 0.00 67 1010.8
20260507005115 51 311 0.0 0.0 0.00 0.22 0.00 65 1010.4
20260507004555 52 310 0.0 0.0 0.00 0.25 0.00 64 1010.5
20260507003515 53 272 0.0 1.0 0.00 0.27 0.00 60 1010.5
20260507002954 53 269 0.0 0.0 0.00 0.27 0.00 62 1010.4
20260507002433 53 269 0.0 0.0 0.00 0.28 0.00 61 1010.4
20260507001914 54 331 0.0 1.0 0.00 0.28 0.00 61 1010.2
20260507001354 54 305 0.0 2.0 0.00 0.28 0.00 60 1010.3
20260507000833 55 305 1.0 2.0 0.00 0.28 0.00 57 1010.1
20260507000315 56 9 0.0 0.0 0.00 0.29 0.00 55 1010.2
20260506235755 57 16 0.0 0.0 0.00 0.29 0.00 55 1009.9
20260506235233 56 0 3.0 4.0 0.00 0.29 0.00 56 1010.0
20260506234633 57 298 0.0 1.0 0.00 0.29 0.00 59 1010.0
20260506234033 56 294 0.0 1.0 0.00 0.29 0.00 55 1009.8
20260506233433 57 316 3.0 4.0 0.00 0.29 0.00 54 1009.9
20260506232833 56 279 2.0 3.0 0.00 0.30 0.00 55 1009.8
20260506232333 57 303 6.0 9.0 0.00 0.30 0.00 53 1010.1
20260506231733 59 302 4.0 5.0 0.00 0.30 0.00 50 1009.9
20260506231133 59 265 6.0 8.0 0.00 0.30 0.00 52 1010.0
20260506230533 58 269 5.0 8.0 0.00 0.31 0.00 54 1009.8
20260506225933 58 301 2.0 4.0 0.00 0.32 0.00 54 1009.9
20260506225333 58 273 2.0 5.0 0.00 0.32 0.00 54 1010.0
20260506224833 58 272 0.0 1.0 0.00 0.32 0.00 52 1010.1
20260506224233 59 17 1.0 2.0 0.00 0.32 0.00 52 1009.9
20260506223633 58 339 0.0 1.0 0.00 0.33 0.00 51 1010.0
20260506223033 59 269 3.0 4.0 0.00 0.34 0.00 51 1010.2
20260506222433 59 272 3.0 5.0 0.00 0.35 0.00 54 1010.0
20260506221833 58 339 1.0 2.0 0.00 0.35 0.00 49 1009.9
20260506221233 59 270 13.0 14.0 0.00 0.36 0.00 54 1010.0
20260506220633 59 350 2.0 3.0 0.00 0.36 0.00 49 1010.1
20260506220033 59 306 6.0 6.0 0.00 0.38 0.00 49 1010.2
20260506215433 59 261 2.0 5.0 0.00 0.39 0.00 52 1010.1
20260506214833 59 320 5.0 8.0 0.00 0.39 0.00 49 1010.1
20260506214233 60 330 3.0 4.0 0.00 0.41 0.00 49 1010.2
20260506213633 59 237 1.0 2.0 0.00 0.41 0.00 53 1010.3
20260506211833 57 249 1.0 3.0 0.00 0.44 0.00 54 1010.3
20260506211233 57 298 2.0 3.0 0.00 0.44 0.00 54 1010.2
20260506210633 57 298 2.0 3.0 0.00 0.45 0.00 56 1010.2
20260506210033 57 109 0.0 1.0 0.00 0.46 0.00 59 1010.2
20260506205433 57 294 0.0 0.0 0.00 0.47 0.00 55 1010.2
20260506204833 59 245 1.0 2.0 0.00 0.48 0.00 53 1010.1
20260506204233 58 265 3.0 4.0 0.00 0.48 0.00 53 1010.3
20260506203633 59 347 1.0 3.0 0.00 0.49 0.00 54 1010.5
20260506203033 60 359 2.0 2.0 0.00 0.49 0.00 53 1010.1
20260506202433 59 287 2.0 3.0 0.00 0.49 0.00 51 1010.5
20260506201834 58 317 0.0 2.0 0.00 0.50 0.00 50 1010.0
20260506201233 58 328 5.0 5.0 0.00 0.50 0.00 61 1010.2
20260506200633 59 266 4.0 5.0 0.00 0.50 0.00 51 1009.9
20260506200036 58 258 5.0 8.0 0.00 0.51 0.00 52 1009.9
20260506195533 58 242 3.0 4.0 0.00 0.51 0.00 55 1010.2
20260506194933 57 53 1.0 2.0 0.00 0.51 0.00 51 1010.1
20260506194333 57 266 4.0 6.0 0.00 0.51 0.00 55 1010.2
20260506193733 57 273 5.0 5.0 0.00 0.51 0.00 59 1010.1
20260506193133 57 260 1.0 1.0 0.00 0.51 0.00 60 1010.4
20260506192533 56 293 2.0 4.0 0.00 0.51 0.00 65 1010.5
20260506191433 56 263 0.0 2.0 0.00 0.51 0.00 72 1010.5
20260506190333 55 2 2.0 3.0 0.00 0.51 0.00 70 1010.4
20260506185733 55 279 3.0 4.0 0.00 0.51 0.00 76 1010.6
20260506185133 55 273 5.0 8.0 0.00 0.51 0.00 76 1010.6
20260506184533 54 290 4.0 6.0 0.00 0.51 0.00 74 1010.4
20260506183333 54 246 2.0 3.0 0.00 0.51 0.00 77 1010.6
20260506182733 54 291 2.0 3.0 0.00 0.51 0.00 80 1010.2
20260506182133 53 282 4.0 4.0 0.00 0.51 0.00 81 1010.4
20260506181533 53 260 4.0 4.0 0.00 0.51 0.00 80 1010.6
20260506180933 53 242 4.0 5.0 0.00 0.51 0.00 79 1010.4
20260506180333 53 253 1.0 2.0 0.00 0.51 0.00 82 1010.3
20260506175733 53 303 3.0 4.0 0.00 0.51 0.00 82 1010.4
20260506175133 53 274 4.0 5.0 0.00 0.51 0.00 83 1010.5
20260506174533 53 304 3.0 3.0 0.00 0.51 0.00 83 1010.5
20260506173933 52 234 2.0 2.0 0.00 0.51 0.00 83 1010.7
20260506173333 52 293 3.0 4.0 0.00 0.51 0.00 82 1010.5
20260506172733 52 245 3.0 4.0 0.00 0.51 0.00 83 1010.5
20260506172133 52 292 4.0 4.0 0.00 0.51 0.00 83 1010.8
20260506171533 52 275 3.0 4.0 0.00 0.51 0.00 83 1010.7
20260506170933 52 347 4.0 4.0 0.00 0.51 0.00 82 1010.6
20260506170333 52 300 1.0 1.0 0.00 0.51 0.00 83 1010.5
20260506165733 52 274 3.0 3.0 0.00 0.51 0.00 82 1010.3
20260506165133 52 285 3.0 4.0 0.00 0.51 0.00 83 1010.2
20260506164533 52 255 3.0 4.0 0.00 0.51 0.00 82 1010.5
20260506163933 52 258 1.0 2.0 0.00 0.51 0.00 84 1010.5
20260506163333 52 311 3.0 4.0 0.00 0.51 0.00 82 1010.4
20260506162833 52 284 2.0 3.0 0.00 0.51 0.00 84 1010.3
20260506162233 52 269 1.0 2.0 0.00 0.52 0.00 85 1010.2
20260506161633 52 268 0.0 2.0 0.00 0.52 0.00 85 1010.2
20260506161033 52 251 0.0 1.0 0.00 0.53 0.00 87 1010.5
20260506160433 51 242 2.0 3.0 0.00 0.54 0.00 87 1010.1
20260506155833 51 277 1.0 2.0 0.00 0.54 0.00 87 1010.2
20260506155233 51 298 3.0 3.0 0.00 0.56 0.00 88 1010.1
20260506154633 51 272 0.0 1.0 0.00 0.57 0.00 88 1010.0
20260506154133 51 247 3.0 3.0 0.00 0.58 0.00 88 1009.9
20260506153533 51 286 0.0 0.0 0.00 0.59 0.00 89 1009.7
20260506152333 50 280 0.0 0.0 0.00 0.63 0.00 90 1009.9
20260506151733 50 258 0.0 0.0 0.00 0.64 0.00 90 1009.6
20260506151233 50 251 0.0 0.0 0.00 0.65 0.00 91 1009.6
20260506150033 50 281 0.0 0.0 0.00 0.66 0.00 90 1009.5
20260506145433 50 272 0.0 0.0 0.00 0.66 0.00 91 1009.4
20260506144933 50 302 1.0 2.0 0.00 0.66 0.00 91 1009.3
20260506144333 50 310 0.0 0.0 0.00 0.66 0.00 92 1009.6
20260506143733 50 316 0.0 0.0 0.00 0.66 0.00 92 1009.4
20260506143133 50 291 0.0 1.0 0.00 0.66 0.00 93 1009.7
20260506142533 50 301 0.0 0.0 0.00 0.67 0.00 95 1009.4
20260506142033 49 297 0.0 0.0 0.00 0.69 0.00 98 1009.5
20260506141433 49 275 0.0 0.0 0.00 0.69 0.00 99 1009.2
20260506140933 49 308 0.0 0.0 0.00 0.69 0.00 99 1009.4
20260506140333 48 313 0.0 0.0 0.00 0.69 0.00 99 1009.3
20260506135833 48 325 0.0 0.0 0.00 0.69 0.00 99 1009.2
20260506134633 48 304 0.0 2.0 0.00 0.69 0.00 99 1009.3
20260506133604 48 252 3.0 3.0 0.00 0.74 0.00 99 1009.1
20260506133034 48 255 3.0 4.0 0.00 0.74 0.00 99 1009.1
20260506132433 48 249 4.0 4.0 0.00 0.77 0.00 99 1009.2
20260506131833 48 253 2.0 3.0 0.00 0.79 0.00 99 1009.3
20260506131233 47 287 0.0 0.0 0.00 0.80 0.00 99 1009.1
20260506130633 47 267 0.0 0.0 0.00 0.80 0.00 99 1009.1
20260506130034 47 321 0.0 0.0 0.00 0.80 0.00 99 1008.8
20260506125433 47 283 0.0 0.0 0.00 0.80 0.00 99 1009.1
20260506124833 47 243 0.0 0.0 0.00 0.80 0.00 99 1009.3
20260506124233 46 277 0.0 0.0 0.00 0.80 0.00 99 1008.8
20260506123633 46 273 0.0 0.0 0.00 0.80 0.00 99 1008.5
20260506123033 46 281 0.0 0.0 0.00 0.80 0.00 99 1008.5
20260506122433 46 212 0.0 0.0 0.00 0.80 0.00 99 1008.4
20260506121833 46 222 0.0 0.0 0.00 0.80 0.00 99 1008.4
20260506121233 45 230 0.0 0.0 0.00 0.80 0.00 99 1008.6
20260506120633 45 231 0.0 0.0 0.00 0.80 0.00 99 1008.7
20260506114233 45 313 0.0 0.0 0.00 0.80 0.00 99 1008.0
20260506113633 44 313 0.0 0.0 0.00 0.80 0.00 99 1007.9
20260506113033 44 313 0.0 0.0 0.00 0.80 0.00 99 1007.9
20260506112433 43 313 0.0 0.0 0.00 0.80 0.00 99 1007.6
20260506111233 43 313 0.0 0.0 0.00 0.80 0.00 99 1007.8
20260506110633 43 313 0.0 0.0 0.00 0.80 0.00 99 1007.8
20260506110033 43 313 0.0 0.0 0.00 0.80 0.00 99 1007.5
20260506105533 43 313 0.0 0.0 0.00 0.80 0.00 99 1007.4
20260506104933 43 313 0.0 0.0 0.00 0.80 0.00 99 1007.7
20260506103733 43 313 0.0 0.0 0.00 0.80 0.00 99 1007.2
20260506102533 44 313 0.0 0.0 0.00 0.80 0.00 99 1007.2
20260506101933 44 313 0.0 0.0 0.00 0.80 0.00 99 1007.3
20260506101333 44 314 0.0 0.0 0.00 0.80 0.00 99 1006.9
20260506100733 44 314 0.0 0.0 0.00 0.80 0.00 99 1007.2
20260506100133 44 314 0.0 0.0 0.00 0.80 0.00 99 1006.9
20260506094933 44 314 0.0 0.0 0.00 0.80 0.00 99 1006.8
20260506094333 44 314 0.0 0.0 0.00 0.80 0.00 99 1006.4
20260506093733 45 313 0.0 0.0 0.00 0.80 0.00 99 1006.8
20260506093133 45 314 0.0 0.0 0.00 0.80 0.00 99 1006.7
20260506092533 45 314 0.0 0.0 0.00 0.80 0.00 99 1006.1
20260506091933 45 314 0.0 0.0 0.00 0.80 0.00 99 1006.0
20260506091333 45 314 0.0 0.0 0.00 0.80 0.00 99 1006.1
20260506090833 45 314 0.0 0.0 0.00 0.81 0.00 99 1006.3
20260506090332 45 314 0.0 0.0 0.00 0.81 0.00 99 1006.7
20260506085812 45 314 0.0 0.0 0.00 0.81 0.00 99 1007.0
20260506084733 45 253 0.0 0.0 0.00 0.83 0.00 99 1006.8
20260506084133 45 259 0.0 0.0 0.00 0.84 0.00 99 1006.6
20260506083033 45 264 0.0 0.0 0.00 0.87 0.00 99 1006.7
20260506082433 45 307 0.0 0.0 0.00 0.88 0.00 99 1006.3
20260506081833 45 307 0.0 0.0 0.00 0.89 0.00 99 1005.7
20260506080633 45 307 0.0 0.0 0.00 0.92 0.00 99 1006.2
20260506073133 45 307 0.0 0.0 0.00 1.01 0.00 99 1005.7
20260506072633 44 307 0.0 0.0 0.00 1.03 0.00 99 1005.6
20260506072033 45 307 0.0 0.0 0.00 1.03 0.00 99 1006.1
20260506071433 45 307 0.0 0.0 0.00 1.04 0.00 99 1006.2
20260506070833 45 307 0.0 0.0 0.00 1.06 0.00 99 1006.5
20260506070233 44 312 0.0 0.0 0.00 1.06 0.00 99 1006.1
20260506062124 44 313 0.0 0.0 0.00 1.20 0.00 99 1006.1
20260506061605 44 316 0.0 0.0 0.00 1.20 0.00 99 1006.1
20260506061044 44 320 0.0 0.0 0.00 1.20 0.00 99 1005.9
20260506060534 44 269 0.0 0.0 0.00 1.20 0.00 99 1006.0